Location: Star Hoppers Observatory
(42.7905°N, 83.6127°W)
Time: 21:35:31
(UTC-04:00)

NOSS 3-1 (A) - Visible Passes

Search period start: 23 April 2017 00:00
Search period end: 03 May 2017 00:00
Orbit: 833 x 1379 km, 63.4° (Epoch: 19 April)

Date Brightness Start Highest point End Pass type
(mag) Time Alt. Az. Time Alt. Az. Time Alt. Az.
23 Apr 4.2 00:54:33 46° NE 00:54:33 46° NE 00:59:05 10° NE visible
23 Apr 5.2 02:41:56 19° WNW 02:44:25 24° NNW 02:49:49 10° NNE visible
23 Apr 6.1 04:35:03 10° NNW 04:38:11 13° N 04:41:28 10° NNE visible
24 Apr 4.5 00:10:33 33° ENE 00:10:33 33° ENE 00:14:12 10° NE visible
24 Apr 4.7 01:57:56 30° WNW 01:59:12 33° NW 02:05:11 10° NNE visible
24 Apr 6.0 03:49:06 10° NW 03:52:31 14° N 03:56:09 10° NNE visible
24 Apr 6.1 05:42:27 10° NNW 05:46:45 16° NNE 05:51:20 10° NE visible
24 Apr 4.9 23:26:28 22° ENE 23:26:28 22° ENE 23:29:03 10° NE visible
25 Apr 4.1 01:13:50 47° NW 01:14:08 47° NW 01:20:32 10° NNE visible
25 Apr 5.9 03:02:59 10° WNW 03:06:56 17° NNW 03:11:13 10° NNE visible
25 Apr 6.2 04:57:32 10° NNW 05:01:07 14° N 05:04:55 10° NE visible
25 Apr 5.3 22:42:15 14° ENE 22:42:15 14° ENE 22:43:27 10° ENE visible
26 Apr 3.6 00:29:36 70° NNW 00:29:36 70° NNW 00:35:49 10° NNE visible
26 Apr 5.7 02:16:58 10° WNW 02:21:29 21° NNW 02:26:28 10° NNE visible
26 Apr 6.2 04:12:17 10° NNW 04:15:27 13° N 04:18:46 10° NNE visible
26 Apr 6.1 06:03:46 10° NNW 06:09:23 23° NNE 06:15:29 10° E visible
26 Apr 3.4 23:45:11 67° ENE 23:45:11 67° ENE 23:51:01 10° NE visible
27 Apr 5.2 01:32:32 16° W 01:36:10 27° NNW 01:41:49 10° NNE visible
27 Apr 6.2 03:26:35 10° NW 03:29:46 14° N 03:33:09 10° NNE visible
27 Apr 6.2 05:19:08 10° NNW 05:23:56 18° NNE 05:29:05 10° ENE visible
27 Apr 3.7 23:00:29 44° ESE 23:00:29 44° ESE 23:06:02 10° NE visible
28 Apr 4.7 00:47:48 22° W 00:51:00 37° NW 00:57:10 10° NNE visible
28 Apr 6.1 02:40:32 10° NW 02:44:09 15° NNW 02:48:00 10° NNE visible
28 Apr 6.3 04:34:22 10° NNW 04:38:23 15° NNE 04:42:37 10° NE visible
28 Apr 4.2 22:15:18 27° ESE 22:15:38 27° ESE 22:20:45 10° NE visible
29 Apr 4.0 00:02:34 24° WSW 00:06:01 55° NW 00:12:31 10° NNE visible
29 Apr 6.0 01:54:24 10° WNW 01:58:37 18° NNW 02:03:10 10° NNE visible
29 Apr 6.3 03:49:21 10° NNW 03:52:43 14° N 03:56:17 10° NE visible
29 Apr 6.1 05:40:23 10° NNW 05:46:28 27° NNE 05:53:05 10° E visible
29 Apr 4.8 21:28:55 12° SE 21:31:25 15° ESE 21:34:48 10° ENE visible
29 Apr 3.3 23:16:00 13° SW 23:21:12 84° NW 23:27:45 10° NE visible
30 Apr 5.6 01:08:25 10° W 01:13:12 23° NNW 01:18:28 10° NNE visible
30 Apr 6.3 03:03:56 10° NNW 03:07:03 13° N 03:10:20 10° NNE visible
30 Apr 6.3 04:55:47 10° NNW 05:01:05 21° NNE 05:06:49 10° ENE visible
30 Apr 3.3 22:30:55 10° SSW 22:36:34 61° ESE 22:42:54 10° NE visible
01 May 5.2 00:22:41 10° W 00:27:56 31° NW 00:33:49 10° NNE visible
01 May 6.3 02:18:03 10° NW 02:21:23 14° N 02:24:54 10° NNE visible
01 May 6.4 04:11:06 10° NNW 04:15:35 17° NNE 04:20:23 10° ENE visible
01 May 3.8 21:46:54 10° S 21:52:06 37° ESE 21:57:50 10° NE visible
01 May 4.5 23:37:14 10° WSW 23:42:51 43° NW 23:49:10 10° NNE visible
02 May 6.2 01:31:57 10° NW 01:35:47 16° NNW 01:39:54 10° NNE visible
02 May 6.4 03:26:16 10° NNW 03:29:59 15° NNE 03:33:55 10° NE visible
02 May 5.9 05:16:59 10° NNW 05:23:28 32° NE 05:30:35 10° E visible
02 May 4.4 21:03:31 10° SSE 21:07:47 22° ESE 21:12:22 10° ENE visible
02 May 3.8 22:52:08 10° SW 22:57:56 65° NW 23:04:29 10° NNE visible
